Tracking 31027 objects as of 19-Jul-2025
HD Live streaming from Space Station
objects crossing your sky now

DELTA 1 DEB

Track DELTA 1 DEB now!
10-day predictions


NORAD ID: 7200
Int'l Code: 1973-086FJ
Perigee: 1,443.0 km
Apogee: 1,916.4 km
Inclination: 102.4 °
Period: 119.8 minutes
Semi major axis: 8050 km
RCS: 0.0922 m2 (small)
Launch date: November 6, 1973
Source: United States (US)
Launch site: AIR FORCE WESTERN TEST RANGE (AFWTR)

Note: This is SATELLITE DEBRIS
Your satellite tracking list
NUSAT-20 (GRACE)
Track 1 satellite(s)




NASA's NSSDC Master Catalog

Two Line Element Set (TLE):
1 07200U 73086FJ  25199.49709436 -.00000104  00000-0 -66567-3 0  9991
2 07200 102.3639 197.2603 0294017 198.6415 318.6223 12.01866082262212
Source of the keplerian elements: AFSPC